This is the latest recevied weather packets stored in our database for station/object VE3EP-1. If no packets are shown the sender has not sent any weather packets the latest 10 day(s).
| Time | Temp. | Humidity | Pressure | Rain* | Wind** | Luminosity | Snow |
|---|---|---|---|---|---|---|---|
| 1778131328 | 6.11° C | 64% | 1014.5 hPa | 0 mm | - | - | - |
| 1778130128 | 6.11° C | 63% | 1014.2 hPa | 0 mm | - | - | - |
| 1778129528 | 6.11° C | 62% | 1014.6 hPa | 0 mm | - | - | - |
| 1778128928 | 6.11° C | 62% | 1014.4 hPa | 0 mm | - | - | - |
| 1778128328 | 6.11° C | 63% | 1014.5 hPa | 0 mm | - | - | - |
| 1778127728 | 6.11° C | 62% | 1014.5 hPa | 0 mm | - | - | - |
| 1778127128 | 6.11° C | 62% | 1014.3 hPa | 0 mm | - | - | - |
| 1778125928 | 6.67° C | 64% | 1014.2 hPa | 0 mm | - | - | - |
| 1778125328 | 6.67° C | 64% | 1014 hPa | 0 mm | - | - | - |
| 1778124729 | 6.67° C | 69% | 1014 hPa | 0 mm | - | - | - |
| 1778124128 | 6.67° C | 75% | 1014.2 hPa | 0 mm | - | - | - |
| 1778123528 | 6.67° C | 75% | 1014 hPa | 0 mm | - | - | - |
| 1778122928 | 6.67° C | 74% | 1014.2 hPa | 0 mm | - | - | - |
| 1778122329 | 6.11° C | 82% | 1014.2 hPa | 0 mm | - | - | - |
| 1778121728 | 6.11° C | 87% | 1014.2 hPa | 0 mm | - | - | - |
| 1778121128 | 6.11° C | 87% | 1014.4 hPa | 0 mm | - | - | - |
| 1778120528 | 6.67° C | 87% | 1014.1 hPa | 0 mm | - | - | - |
| 1778119928 | 6.67° C | 86% | 1014.1 hPa | 0 mm | - | - | - |
| 1778119328 | 6.67° C | 85% | 1014 hPa | 0 mm | - | - | - |
| 1778118729 | 6.67° C | 85% | 1014.1 hPa | 0 mm | - | - | - |
| 1778117528 | 6.67° C | 87% | 1014 hPa | 0 mm | - | - | - |
| 1778116928 | 7.22° C | 87% | 1014.2 hPa | 0 mm | - | - | - |
| 1778116328 | 7.22° C | 85% | 1014 hPa | 0 mm | - | - | - |
| 1778115728 | 7.22° C | 86% | 1014 hPa | 0 mm | - | - | - |
| 1778115129 | 6.67° C | 87% | 1013.9 hPa | 0 mm | - | - | - |
* Rain latest hour (hover to see other rain measurements)
** Current wind speed in m/s (hover to see current wind gust speed)